Location: Cruquius
(52.3348°N, 4.6319°E)
Time: 18:26:38
(UTC+00:00)

Cosmos 158 Rocket - Pass Details

Date: 12 May 2021
Orbit: 699 x 793 km, 74.0° (Epoch: 20 June)

Event Time Altitude Azimuth Distance (km) Brightness Sun altitude
Rises 20:52:55 0° 334° (NNW) 3,096 9.0 -10.8°
Reaches altitude 10° 20:55:14 10° 335° (NNW) 2,174 7.8 -11.0°
Maximum altitude 21:00:09 89° 66° (ENE) 710 3.8 -11.5°
Enters shadow 21:04:06 16° 156° (SSE) 1,806 5.3 -11.8°
